Date String (YYYY-MM-DD hh:mm:ss) UTC,Instrument flags,Ambient pressure (hPa),Sample flow (lpm),Bypass flow (lpm),Sample temperature (°C),Ambient temperature (°C),ASC tube jacket temperature (°C),LED temperature (°C),Box temperature (°C),Sample RH (%),Span deviation,Mass concentration (μg/m³),Mass concentration (μg/m³),Mass concentration (μg/m³)
DateTimeUTC,F1_M11,P_M11,Q1_M11,Q2_M11,T1_M11,T2_M11,T3_M11,T4_M11,T5_M11,U1_M11,ZSPAN_M11,X0_M11,X2_M11,X1_M11
2022-07-31 04:00:00,,0829.5,5.01,0.00,29.5,28.4,00.0,38.3,31.5,22.4,0000.0,0005.75,0004.09,0003.92
2022-07-31 04:01:00,,0829.5,4.99,0.00,29.6,28.5,00.0,38.3,31.6,22.3,0000.0,0005.72,0004.09,0003.93
2022-07-31 04:02:00,,0829.5,5.01,0.00,29.6,28.4,00.0,38.3,31.5,22.2,0000.0,0005.72,0004.10,0003.94
2022-07-31 04:03:00,,0829.5,4.99,0.00,29.6,27.7,00.0,38.3,31.4,22.4,0000.0,0005.73,0004.11,0003.96
2022-07-31 04:04:00,,0829.5,5.01,0.00,29.5,27.5,00.0,38.3,31.3,21.9,0000.0,0005.78,0004.13,0003.97
2022-07-31 04:05:00,,0829.5,5.01,0.00,29.5,27.5,00.0,38.2,31.2,21.5,0000.0,0005.84,0004.15,0003.99
2022-07-31 04:06:00,,0829.5,4.99,0.00,29.4,27.6,00.0,38.2,31.2,21.7,0000.0,0005.84,0004.17,0004.00
2022-07-31 04:07:00,,0829.4,5.01,0.00,29.4,27.7,00.0,38.2,31.3,22.2,0000.0,0005.83,0004.19,0004.01
2022-07-31 04:08:00,,0829.4,5.00,0.00,29.4,27.8,00.0,38.2,31.3,22.9,0000.0,0006.11,0004.23,0004.05
2022-07-31 04:09:00,,0829.3,4.99,0.00,29.5,28.0,00.0,38.2,31.3,23.1,0000.0,0006.77,0004.28,0004.10
2022-07-31 04:10:00,,0829.3,5.01,0.00,29.5,28.1,00.0,38.3,31.4,22.9,0000.0,0007.54,0004.36,0004.16
2022-07-31 04:11:00,,0829.3,5.00,0.00,29.5,28.2,00.0,38.3,31.4,22.9,0000.0,0007.77,0004.42,0004.22
2022-07-31 04:12:00,,0829.2,5.00,0.00,29.5,28.3,00.0,38.3,31.5,23.3,0000.0,0007.87,0004.50,0004.28
2022-07-31 04:13:00,,0829.2,4.99,0.00,29.6,28.4,00.0,38.3,31.5,23.1,0000.0,0007.98,0004.58,0004.33
2022-07-31 04:14:00,,0829.4,5.01,0.00,29.6,28.5,00.0,38.3,31.5,23.2,0000.0,0008.06,0004.65,0004.40
2022-07-31 04:15:00,,0829.3,5.01,0.00,29.6,28.6,00.0,38.3,31.6,23.1,0000.0,0008.26,0004.71,0004.46
2022-07-31 04:16:00,,0829.3,5.01,0.00,29.6,28.4,00.0,38.3,31.5,23.1,0000.0,0008.38,0004.79,0004.52
2022-07-31 04:17:00,,0829.2,4.99,0.00,29.6,27.5,00.0,38.3,31.3,23.3,0000.0,0008.48,0004.87,0004.59
2022-07-31 04:18:00,,0829.2,5.00,0.00,29.5,27.0,00.0,38.3,31.2,23.5,0000.0,0008.60,0004.94,0004.65
2022-07-31 04:19:00,,0829.3,5.01,0.00,29.5,26.9,00.0,38.2,31.2,23.5,0000.0,0008.59,0004.97,0004.69
2022-07-31 04:20:00,,0829.3,4.99,0.00,29.4,27.0,00.0,38.2,31.1,23.7,0000.0,0008.25,0005.00,0004.72
2022-07-31 04:21:00,,0829.2,5.00,0.00,29.3,27.2,00.0,38.2,31.1,23.7,0000.0,0007.88,0005.01,0004.74
2022-07-31 04:22:00,,0829.2,5.00,0.00,29.3,27.4,00.0,38.2,31.1,23.6,0000.0,0007.65,0005.01,0004.76
2022-07-31 04:23:00,,0829.2,5.01,0.00,29.3,27.5,00.0,38.2,31.2,23.4,0000.0,0007.66,0005.03,0004.79
2022-07-31 04:24:00,,0829.0,5.01,0.00,29.3,27.7,00.0,38.2,31.2,23.4,0000.0,0007.74,0005.06,0004.81
2022-07-31 04:25:00,,0829.0,5.00,0.00,29.4,27.9,00.0,38.2,31.3,23.3,0000.0,0007.72,0005.05,0004.81
2022-07-31 04:26:00,,0828.9,5.00,0.00,29.4,28.0,00.0,38.2,31.3,23.1,0000.0,0007.61,0005.06,0004.81
2022-07-31 04:27:00,,0828.9,4.98,0.00,29.4,28.1,00.0,38.2,31.3,22.7,0000.0,0007.55,0005.06,0004.80
2022-07-31 04:28:00,,0829.0,5.00,0.00,29.4,28.2,00.0,38.2,31.4,22.9,0000.0,0007.89,0005.05,0004.79
2022-07-31 04:29:00,,0829.1,5.00,0.00,29.5,28.3,00.0,38.2,31.4,22.9,0000.0,0008.20,0005.06,0004.79
2022-07-31 04:30:00,,0829.1,5.01,0.00,29.5,28.4,00.0,38.2,31.5,23.0,0000.0,0008.19,0005.07,0004.79
2022-07-31 04:31:00,,0829.0,4.99,0.00,29.5,28.5,00.0,38.3,31.5,23.0,0000.0,0008.18,0005.06,0004.77
2022-07-31 04:32:00,,0829.2,5.01,0.00,29.6,28.6,00.0,38.3,31.5,23.2,0000.0,0008.15,0005.05,0004.76
2022-07-31 04:33:00,,0829.2,5.01,0.00,29.6,28.6,00.0,38.3,31.6,23.3,0000.0,0008.18,0005.05,0004.74
2022-07-31 04:34:00,,0829.2,5.00,0.00,29.6,28.1,00.0,38.3,31.4,23.2,0000.0,0008.20,0005.04,0004.72
2022-07-31 04:35:00,,0829.3,4.99,0.00,29.6,27.6,00.0,38.3,31.4,23.4,0000.0,0008.15,0005.03,0004.71
2022-07-31 04:36:00,,0829.2,5.00,0.00,29.5,27.5,00.0,38.3,31.3,23.5,0000.0,0008.18,0005.04,0004.72
2022-07-31 04:37:00,,0829.3,5.01,0.00,29.5,27.6,00.0,38.3,31.3,23.6,0000.0,0008.20,0005.05,0004.73
2022-07-31 04:38:00,,0829.2,5.00,0.00,29.5,27.7,00.0,38.3,31.3,23.5,0000.0,0008.21,0005.06,0004.74
2022-07-31 04:39:00,,0829.3,5.01,0.00,29.5,27.8,00.0,38.3,31.3,23.6,0000.0,0007.98,0005.06,0004.74
2022-07-31 04:40:00,,0829.3,4.99,0.00,29.5,28.0,00.0,38.3,31.4,23.6,0000.0,0007.56,0005.05,0004.74
2022-07-31 04:41:00,,0829.2,4.99,0.00,29.5,28.1,00.0,38.3,31.4,23.5,0000.0,0007.59,0005.04,0004.74
2022-07-31 04:42:00,,0829.2,5.00,0.00,29.5,28.2,00.0,38.3,31.4,23.4,0000.0,0007.66,0005.05,0004.74
2022-07-31 04:43:00,,0829.3,5.00,0.00,29.5,28.3,00.0,38.3,31.5,23.3,0000.0,0007.68,0005.04,0004.74
2022-07-31 04:44:00,,0829.3,4.99,0.00,29.6,28.4,00.0,38.3,31.5,23.2,0000.0,0007.71,0005.05,0004.74
2022-07-31 04:45:00,,0829.3,5.01,0.00,29.6,28.5,00.0,38.3,31.6,23.3,0000.0,0007.65,0005.04,0004.74
2022-07-31 04:46:00,,0829.2,4.99,0.00,29.6,28.6,00.0,38.4,31.6,23.3,0000.0,0007.60,0005.03,0004.75
2022-07-31 04:47:00,,0829.3,5.00,0.00,29.7,28.3,00.0,38.4,31.5,23.1,0000.0,0007.74,0005.05,0004.75
2022-07-31 04:48:00,,0829.3,4.99,0.00,29.6,27.4,00.0,38.3,31.3,22.8,0000.0,0007.83,0005.03,0004.73
2022-07-31 04:49:00,,0829.3,5.00,0.00,29.5,26.9,00.0,38.3,31.2,23.0,0000.0,0007.83,0005.02,0004.71
2022-07-31 04:50:00,,0829.3,4.99,0.00,29.4,26.9,00.0,38.3,31.1,23.1,0000.0,0007.81,0005.01,0004.70
2022-07-31 04:51:00,,0829.3,5.00,0.00,29.4,27.0,00.0,38.2,31.0,23.4,0000.0,0007.77,0005.00,0004.69
2022-07-31 04:52:00,,0829.2,4.99,0.00,29.3,27.2,00.0,38.2,31.1,23.4,0000.0,0007.72,0004.98,0004.68
2022-07-31 04:53:00,,0829.2,5.00,0.00,29.3,27.3,00.0,38.2,31.1,23.3,0000.0,0007.63,0004.95,0004.67
2022-07-31 04:54:00,,0829.3,5.00,0.00,29.3,27.5,00.0,38.2,31.2,23.2,0000.0,0007.57,0004.93,0004.65
2022-07-31 04:55:00,,0829.3,5.00,0.00,29.3,27.7,00.0,38.2,31.2,23.1,0000.0,0007.49,0004.89,0004.62
2022-07-31 04:56:00,,0829.3,5.00,0.00,29.4,27.9,00.0,38.2,31.3,22.7,0000.0,0007.52,0004.87,0004.60
2022-07-31 04:57:00,,0829.3,5.00,0.00,29.4,28.0,00.0,38.2,31.3,22.8,0000.0,0007.51,0004.84,0004.58
2022-07-31 04:58:00,,0829.3,5.00,0.00,29.4,28.1,00.0,38.2,31.3,22.9,0000.0,0007.24,0004.77,0004.54
2022-07-31 04:59:00,,0829.2,5.01,0.00,29.4,28.2,00.0,38.2,31.4,22.7,0000.0,0006.97,0004.74,0004.52
